RH
7 7 5 3 3 5 11 18 23 26 26 22 16 11 8 10 11 13 12 12 11 7 6 6 5 4 4
6 4 5 8 12 17 24 27 25 21 13 7 11 19 19 19 18 14 11 13 16 14 7 7 6 6 5
4 8 12 14 20 22 24 18 13 7 17 19 13 10 14 16 10 9 12 14 14 12 12 9 9 8 7
16 17 18 18 21 19 11 6 14 19 12 11 10 11 11 10 11 12 12 13 13 11 9 9 10 10 8
10 9 10 13 13 9 6 16 21 40 31 60 25 23 17 13 6 7 8 10 10 9 8 8 8 7 7
12 10 9 9 8 14 22 56 83 100 71 98 48 46 30 10 9 14 33 50 52 62 43 11 9 8 7
11 10 10 20 24 77 85 87 92 100 54 46 79 73 24 15 24 59 70 94 97 81 98 99 53 12 8
25 28 29 69 86 84 87 78 84 87 40 58 66 34 22 35 53 76 98 100 100 100 88 100 89 37 13
35 78 95 99 97 88 84 82 91 100 75 83 95 62 38 60 62 80 100 100 100 100 99 84 90 43 17
100 100 100 100 100 94 90 94 100 100 95 100 100 78 56 65 65 77 100 100 100 62 27 13 11 9 11
100 100 100 100 100 99 98 96 98 100 98 97 100 100 92 83 88 88 100 82 79 93 32 14 10 9 9
99 100 100 100 100 100 100 97 87 90 100 100 100 96 100 100 100 100 99 99 100 100 82 19 12 7 7
100 100 100 100 100 100 100 100 98 98 100 100 100 89 100 98 82 83 100 100 100 100 86 28 36 32 17
100 99 100 100 100 100 100 100 100 100 100 100 100 100 85 93 92 100 93 97 96 78 21 20 35 68 90
100 100 100 100 100 100 100 100 100 100 100 100 62 83 100 100 77 87 100 92 38 56 40 10 17 50 83
100 100 100 100 100 100 100 100 100 100 100 92 42 76 80 55 68 99 90 90 100 100 95 60 59 21 59
59 65 94 95 97 99 100 100 100 100 100 99 61 78 64 88 100 100 100 85 100 100 89 64 97 42 28
Wind_Speed
119 120 113 104 95 90 85 83 80 77 78 81 82 80 74 70 70 72 73 72 70 71 73 74 77 78 79
117 100 87 80 77 73 72 73 79 83 84 78 69 67 68 69 71 71 71 71 69 68 68 69 71 71 71
97 85 78 75 72 70 71 73 78 73 64 66 67 65 63 62 62 61 61 62 63 64 64 65 66 67 68
90 85 81 77 77 77 71 70 57 59 58 56 54 54 53 53 52 52 51 52 54 57 60 64 67 67 66
87 84 80 77 76 71 60 49 42 40 42 43 47 48 48 46 42 37 36 37 41 45 50 56 63 64 67
77 72 67 64 55 44 40 32 28 33 42 35 45 41 41 39 31 28 23 22 24 25 30 40 49 55 63
58 50 44 39 36 29 31 33 30 30 41 34 39 36 38 30 22 15 18 23 25 28 28 31 37 47 54
40 38 35 29 34 34 30 25 24 28 30 22 30 32 31 20 14 14 19 21 29 31 32 28 31 40 50
35 32 35 38 37 29 25 23 20 25 32 27 27 27 20 16 12 14 20 28 36 34 35 34 32 34 43
30 35 34 31 29 29 29 28 27 25 31 29 28 18 15 19 16 17 22 28 32 27 21 19 21 26 35
28 25 26 26 26 26 27 28 26 28 28 26 22 21 12 12 18 17 19 25 12 19 15 7 3 9 23
23 25 22 22 22 23 26 31 32 29 25 21 17 16 16 11 7 7 12 9 15 19 14 9 10 14 22
22 21 20 20 21 24 27 31 33 29 23 20 16 19 6 6 1 5 5 11 12 16 12 8 17 24 33
21 21 21 20 21 23 24 25 24 23 23 19 23 13 12 11 8 5 6 9 12 11 7 11 18 23 28
20 20 20 20 21 21 23 24 21 21 20 18 20 14 13 9 6 10 10 12 20 25 21 13 20 23 25
21 19 19 19 20 20 20 22 20 19 19 16 16 15 15 16 13 11 16 19 19 16 21 21 14 24 29
22 20 18 17 17 18 18 19 19 14 16 17 14 13 15 17 17 17 16 18 24 20 22 23 20 15 31
Wind_Direction
303 302 300 297 295 293 293 293 293 291 291 289 287 286 284 280 276 274 271 268 265 260 256 252 251 248 244
305 302 299 296 294 293 292 292 293 294 292 291 287 283 280 279 277 275 271 267 264 262 258 253 249 247 244
304 303 301 298 296 294 292 293 294 293 291 288 287 285 281 279 278 277 273 269 268 264 257 253 250 247 243
305 302 299 298 296 296 298 298 295 293 291 289 288 286 286 284 281 279 275 271 267 262 258 254 250 246 242
302 299 297 295 294 297 300 299 296 293 289 292 292 294 294 293 292 287 278 273 269 265 261 255 250 245 240
302 301 299 299 299 301 301 299 299 296 292 296 298 303 302 297 296 288 285 284 286 286 275 261 253 248 239
307 306 305 305 307 307 309 306 303 296 290 298 298 307 298 298 286 289 309 316 315 295 281 260 254 245 238
311 310 313 316 316 319 318 315 307 297 307 332 302 305 308 287 286 321 321 316 315 304 291 279 266 249 235
318 322 322 322 325 333 335 333 323 305 308 316 314 318 306 281 304 330 317 322 320 303 292 280 268 252 232
320 319 324 330 334 336 335 334 331 324 316 309 304 318 306 291 303 315 327 319 310 315 314 293 268 247 229
330 334 337 340 339 341 341 340 340 335 329 320 315 298 309 274 296 311 321 325 358 15 354 358 295 219 208
344 348 350 349 350 351 351 348 349 352 347 347 348 344 300 292 318 308 313 25 25 10 11 53 103 133 156
351 353 357 359 358 358 356 354 349 1 5 4 0 355 14 359 163 102 47 7 9 357 0 89 118 123 134
354 354 356 359 0 1 359 358 359 5 12 11 3 21 45 85 105 62 30 10 348 352 60 139 146 149 152
349 349 350 354 357 1 1 3 11 12 10 10 19 67 67 53 71 52 44 36 66 60 60 102 152 162 168
340 343 346 349 349 355 359 10 16 16 20 27 58 74 55 73 80 69 71 86 64 51 47 67 102 163 166
330 334 335 340 346 348 356 7 15 27 26 45 65 62 73 93 92 89 75 82 69 80 58 72 83 120 166